Simultaneous Nadir Overpasses (SNOs) Predictions

Prediction of SNOs between LANDSAT-8 and NPP Satellite Orbit:

Table of predicted SNOs for the next 14.0 days since TLE Epoch: 3/7/2015
Index Date (LANDSAT-8) Time (LANDSAT-8) Lat,Lon (LANDSAT-8) SZA (LANDSAT-8 ) Date (NPP) Time (NPP) Lat,Lon (NPP) SZA (NPP ) Distance(km) Time Diff (sec)
1 03/08/2015 18:17:42 -70.83, 82.89 104.40 03/08/2015 18:16:29 -70.90, 82.61 104.31 12.68 73
2 03/08/2015 19:07:10 70.68,-109.70 75.45 03/08/2015 19:07:11 70.69,-109.74 75.47 2.03 1
3 03/08/2015 19:56:40 -70.56, 57.76 104.68 03/08/2015 19:57:52 -70.54, 57.82 104.71 2.93 72
4 03/11/2015 10:34:09 -70.73,-161.38 105.55 03/11/2015 10:33:17 -70.71,-161.31 105.56 3.37 52
5 03/11/2015 11:23:36 70.62, 6.11 74.35 03/11/2015 11:24:01 70.61, 6.16 74.33 2.71 25
6 03/14/2015 02:00:50 71.63, 148.32 74.29 03/14/2015 01:59:44 71.67, 145.49 74.42 99.14 66
7 03/14/2015 02:50:35 -70.70, -45.52 106.63 03/14/2015 02:50:09 -70.68, -45.50 106.64 2.59 26
8 03/14/2015 03:40:02 70.60, 121.96 73.26 03/14/2015 03:40:53 70.59, 121.97 73.25 1.43 51
9 03/16/2015 18:17:31 70.77, -97.17 72.39 03/16/2015 18:16:19 70.77, -97.19 72.41 0.99 72
10 03/16/2015 19:07:01 -70.65, 70.29 107.74 03/16/2015 19:07:01 -70.67, 70.30 107.72 1.32 0
11 03/16/2015 19:56:30 70.44,-122.39 72.05 03/16/2015 19:57:42 70.41,-121.99 72.01 15.13 72
12 03/19/2015 10:33:56 70.74, 18.68 71.30 03/19/2015 10:33:10 70.72, 18.68 71.28 2.83 46
13 03/19/2015 11:23:26 -70.63,-173.85
